Overview Statistics Trail Chart Weather Telemetry Raw packets
 

This is the latest recevied weather packets stored in our database for station/object 4S6DRJ-13. If no packets are shown the sender has not sent any weather packets the latest 10 day(s).

<< 221 222 223 224 225 226 227 >>
Time Temp. Humidity Pressure Rain* Wind** Luminosity Snow
1788139681 27.78° C 83% 1009.5 hPa 0 mm 0.45 m/s, 230° 74 W/m² -
1788139620 27.78° C 83% 1009.6 hPa 0 mm 0.89 m/s, 253° 72 W/m² -
1788139559 27.78° C 83% 1009.5 hPa 0 mm 0.45 m/s, 256° 71 W/m² -
1788139498 27.78° C 83% 1009.4 hPa 0 mm 0.89 m/s, 46° 72 W/m² -
1788139437 27.78° C 83% 1009.4 hPa 0 mm 0.45 m/s, 285° 68 W/m² -
1788139377 27.78° C 83% 1009.4 hPa 0 mm 0 m/s 63 W/m² -
1788139315 27.78° C 83% 1009.4 hPa 0 mm 0.45 m/s, 219° 61 W/m² -
1788139255 27.78° C 83% 1009.6 hPa 0 mm 0.45 m/s, 152° 58 W/m² -
1788139195 27.78° C 83% 1009.5 hPa 0 mm 0.89 m/s, 285° 64 W/m² -
1788139133 27.78° C 83% 1009.5 hPa 0 mm 0.89 m/s, 258° 67 W/m² -
1788139072 27.78° C 83% 1009.5 hPa 0 mm 1.34 m/s, 251° 65 W/m² -
1788139011 27.78° C 83% 1009.5 hPa 0 mm 1.34 m/s, 316° 60 W/m² -
1788138950 27.78° C 83% 1009.4 hPa 0 mm 0.89 m/s, 207° 59 W/m² -
1788138889 27.78° C 83% 1009.4 hPa 0 mm 0.89 m/s, 289° 56 W/m² -
1788138828 27.78° C 83% 1009.4 hPa 0 mm 0.89 m/s, 277° 52 W/m² -
1788138767 27.78° C 83% 1009.4 hPa 0 mm 0.89 m/s, 335° 48 W/m² -
1788138706 27.78° C 83% 1009.3 hPa 0 mm 0.89 m/s, 226° 48 W/m² -
1788138645 27.78° C 83% 1009.2 hPa 0 mm 0.45 m/s, 238° 45 W/m² -
1788138584 27.78° C 83% 1009.3 hPa 0 mm 0.89 m/s, 292° 44 W/m² -
1788138523 27.78° C 83% 1009.4 hPa 0 mm 0.45 m/s, 222° 45 W/m² -
1788138462 27.78° C 83% 1009.2 hPa 0 mm 0 m/s 45 W/m² -
1788138401 27.78° C 83% 1009.2 hPa 0 mm 0.45 m/s, 256° 43 W/m² -
1788138341 27.78° C 83% 1009.1 hPa 0 mm 0.45 m/s, 228° 41 W/m² -
1788138279 27.78° C 83% 1009.2 hPa 0 mm 1.34 m/s, 54° 39 W/m² -
1788138218 27.78° C 83% 1009.2 hPa 0 mm 0.89 m/s, 220° 38 W/m² -

* Rain latest hour (hover to see other rain measurements)
** Current wind speed in m/s (hover to see current wind gust speed)